TimeCST,TemperatureF,Dew PointF,Humidity,Sea Level PressureIn,VisibilityMPH,Wind Direction,Wind SpeedMPH,Gust SpeedMPH,PrecipitationIn,Events,Conditions,WindDirDegrees,DateUTC
12:53 AM,39.9,21.0,47,30.22,10.0,NNE,3.5,-,N/A,,Clear,30,2013-03-07 06:53:00
1:53 AM,37.0,21.9,54,30.21,10.0,ENE,3.5,-,N/A,,Clear,60,2013-03-07 07:53:00
2:53 AM,36.0,24.1,62,30.20,10.0,NE,4.6,-,N/A,,Clear,40,2013-03-07 08:53:00
3:53 AM,35.1,25.0,67,30.21,10.0,NNE,4.6,-,N/A,,Clear,30,2013-03-07 09:53:00
4:53 AM,35.1,25.0,67,30.21,10.0,NE,3.5,-,N/A,,Clear,40,2013-03-07 10:53:00
5:53 AM,39.0,23.0,53,30.22,10.0,Calm,Calm,-,N/A,,Clear,0,2013-03-07 11:53:00
6:53 AM,39.9,24.1,53,30.24,9.0,ESE,3.5,-,N/A,,Clear,110,2013-03-07 12:53:00
7:53 AM,43.0,25.0,49,30.26,10.0,ESE,4.6,-,N/A,,Clear,110,2013-03-07 13:53:00
8:53 AM,50.0,26.1,39,30.27,10.0,SE,9.2,-,N/A,,Clear,140,2013-03-07 14:53:00
9:53 AM,55.0,30.9,40,30.27,10.0,SSE,9.2,-,N/A,,Clear,160,2013-03-07 15:53:00
10:53 AM,61.0,30.9,32,30.26,10.0,South,12.7,18.4,N/A,,Clear,170,2013-03-07 16:53:00
11:53 AM,63.0,28.0,27,30.25,10.0,South,18.4,-,N/A,,Clear,170,2013-03-07 17:53:00
12:53 PM,64.9,30.0,27,30.21,10.0,SSE,13.8,-,N/A,,Clear,160,2013-03-07 18:53:00
1:53 PM,66.9,30.0,25,30.18,10.0,SSE,16.1,25.3,N/A,,Clear,160,2013-03-07 19:53:00
2:53 PM,68.0,25.0,20,30.16,10.0,South,13.8,-,N/A,,Clear,170,2013-03-07 20:53:00
3:53 PM,69.1,23.0,18,30.14,10.0,South,16.1,-,N/A,,Clear,170,2013-03-07 21:53:00
4:53 PM,70.0,23.0,17,30.13,10.0,SSE,13.8,-,N/A,,Clear,160,2013-03-07 22:53:00
5:53 PM,66.0,26.1,22,30.12,10.0,South,9.2,-,N/A,,Clear,170,2013-03-07 23:53:00
6:53 PM,60.1,28.9,31,30.14,10.0,South,6.9,-,N/A,,Clear,170,2013-03-08 00:53:00
7:53 PM,57.9,28.9,33,30.15,10.0,SSE,3.5,-,N/A,,Clear,150,2013-03-08 01:53:00
8:53 PM,55.9,30.0,37,30.16,10.0,SE,3.5,-,N/A,,Clear,140,2013-03-08 02:53:00
9:53 PM,57.0,30.0,36,30.15,10.0,ESE,4.6,-,N/A,,Clear,110,2013-03-08 03:53:00
10:53 PM,57.0,32.0,39,30.15,8.0,SE,6.9,-,N/A,,Clear,140,2013-03-08 04:53:00
11:53 PM,55.9,33.1,42,30.15,9.0,SSE,9.2,-,N/A,,Clear,150,2013-03-08 05:53:00